967  
ASUS42 KCAE 170410  
RWRCAE  
REGIONAL WEATHER ROUNDUP  
NATIONAL WEATHER SERVICE COLUMBIA SC  
1200 AM EDT WED JUL 17 2019  
 
NOTE: "FAIR" INDICATES FEW OR NO CLOUDS BELOW 12,000 FEET WITH NO  
SIGNIFICANT WEATHER AND/OR S TO VISIBILITY
.  
 
NOT ALL STATIONS ARE QUALITY CONTROLLED BY THE NATIONAL  
WEATHER SERVICE. USE DATA WITH CAUTION...ESPECIALLY  
DEWPOINT OBSERVATIONS.  
 
SCZ001>056-GAZ040-063>065-077-170500-   
..UPSTATE SOUTH CAROLINA
 
 
 
CITY SKY/WX TMP DP RH WIND PRES REMARKS
 
ANDERSON FAIR 76 72 87 CALM 30.12R  
LIBERTY FAIR 74 74 100 CALM 30.12S  
SPARTANBURG FAIR 77 72 83 CALM 30.11R  
CLEMSON FAIR 79 70 74 W3 30.13R  
GREENVILLE FAIR 83 72 69 CALM 30.13S  
GREENWOOD FAIR 75 72 90 CALM 30.13S  
GREER FAIR 78 70 76 S3 30.13S  
ROCK HILL FAIR 77 71 82 SW5 30.11S  
CHESTER FAIR 77 70 78 S3 30.12S  
LAURENS FAIR 79 73 83 CALM 30.11S  
 
   
..CENTRAL SOUTH CAROLINA
 
 
 
CITY SKY/WX TMP DP RH WIND PRES REMARKS
 
COLUMBIA APT FAIR 83 74 74 S5 30.10R  
COLUMBIA OWENS FAIR 83 75 77 CALM 30.11R  
MCENTIRE ANGB FAIR 80 77 91 SE5 30.11R  
ORANGEBURG FAIR 81 74 79 S3 30.12R  
SUMTER SHAW FAIR 82 75 78 S5 30.11R  
NEWBERRY FAIR 77 73 88 CALM 30.14S  
AIKEN FAIR 81 72 74 S5 30.15S  
BARNWELL FAIR 82 77 83 S5 30.11S  
MANNING FAIR 82 77 83 SW7 30.11S  
CAMDEN FAIR 84 75 74 VRB6 30.11S  
LANCASTER FAIR 81 72 74 CALM 30.11S  
WINNSBORO FAIR 81 72 74 S3 30.11S  
 
   
..EASTERN AND COASTAL SOUTH CAROLINA
 
 
 
CITY SKY/WX TMP DP RH WIND PRES REMARKS
 
MYRTLE BEACH FAIR 83 78 85 S7 30.12R  
N MYRTLE BCH FAIR 83 78 85 S8 30.11R  
CONWAY FAIR 77 75 94 CALM 30.11S  
MARION FAIR 79 73 83 SW3 30.11R  
HARTSVILLE FAIR 79 77 94 S3 30.11R  
FLORENCE FAIR 83 76 79 S6 30.11R  
DARLINGTON FAIR 81 77 88 S6 30.11R  
CHARLESTON APT MOCLDY 80 76 87 S5 30.11S  
MOUNT PLEASANT FAIR 79 79 100 CALM 30.11S  
WALTERBORO FAIR 79 77 94 CALM 30.13R  
BEAUFORT FAIR 83 79 88 SW3 30.12R  
HILTON HEAD N/A N/A N/A N/A MISG N/A  
 
   
..EASTERN GEORGIA
 
 
 
CITY SKY/WX TMP DP RH WIND PRES REMARKS
 
AUGUSTA BUSH F CLOUDY 87 69 54 S6 30.09R  
AUGUSTA DANIEL FAIR 88 68 51 CALM 30.12R  
THOMSON FAIR 78 75 90 CALM 30.12R  
WASHINGTON FAIR 79 68 69 CALM 30.12S  
CLAXTON N/A 80 77 90 CALM 30.12R  
SYLVANIA FAIR 83 77 83 S5 30.13R  
STATESBORO FAIR 82 73 75 S3 30.12R  
SAVANNAH MOCLDY 83 78 85 S5 30.12R  
 
   
..SOUTHERN NORTH CAROLINA
 
 
 
CITY SKY/WX TMP DP RH WIND PRES REMARKS
 
CHARLOTTE MOCLDY 82 71 69 CALM 30.11S  
MONROE FAIR 80 70 71 SW3 30.10S  
WADESBORO FAIR 83 72 67 CALM 30.09S  
ROCKINGHAM FAIR 82 70 67 S6 30.10R  
ASHEVILLE FAIR 72 68 87 CALM 30.21R  
 

 
 
 
CLICK HERE TO GO TO PREVIOUS BULLETINS.

The Nexlab SC Page
The Nexlab GA Page Main Text Page